User: anonymous   Login
Location: Bosdarros
(43.2167°N, 0.3667°W)
Time: 06:45:30
(UTC+00:00)
Language:

METEOR 2-8 DEB - Orbit

View from above orbital plane
View from above orbital plane
View from above satellite
View from above satellite

Ground track
Ground track

The orbit data is extracted from the following two-line orbital elements,

1 36865U 82025BC  21297.38686626  .00001060  00000-0  56147-3 0  9994
2 36865  82.5386 178.2142 0031138 313.4985  46.3603 14.12649543898596
Epoch (UTC): 24 October 2021 09:17:05
Eccentricity: 0.0031138
inclination: 82.5386°
perigee height: 828 km
apogee height: 873 km
right ascension of ascending node: 178.2142°
argument of perigee: 313.4985°
revolutions per day: 14.12649543
mean anomaly at epoch: 46.3603°
orbit number at epoch: 89859

The dashed part of the orbit path shows where the satellite is in the earth's shadow,  

DLR